Weather History for Hurghada, Egypt

Change the Weather History Date:

Thursday, April 4, 2013

  Actual Average Record
Temperature  
Mean Temperature 74 °F -  
Max Temperature 84 °F 82 °F 91 °F (2006)
Min Temperature 63 °F 65 °F 55 °F (2005)
Cooling Degree Days 8    
Growing Degree Days 24 (Base 50)    
Moisture  
Dew Point 47 °F    
Average Humidity 40    
Maximum Humidity 78    
Minimum Humidity 13    
Precipitation  
Precipitation 0.00 in - - ()
Sea Level Pressure  
Sea Level Pressure 29.82 in    
Wind  
Wind Speed 11 mph ()    
Max Wind Speed 32 mph    
Max Gust Speed -    
Visibility 3.7 miles    
Events      
Averages and records for this station are not official NWS values.
T = Trace of Precipitation, MM = Missing Value Source: Averaged Metar Reports

Daily Weather History Graph

Daily Weather History Graph

Search for Another Location

Airport:

Trip Planner

Search our weather history database for the weather conditions in past years. The results will help you decide how hot, cold, wet, or windy it might be!

Date:

Astronomy

Apr. 04, 2013 Rise Set
Actual Time 5:32 AM EET 6:03 PM EET
Civil Twilight 5:08 AM EET 6:27 PM EET
Nautical Twilight 4:41 AM EET 6:54 PM EET
Astronomical Twilight 4:13 AM EET 7:22 PM EET
Moon 1:12 AM EET (4/4) 12:29 PM EET (4/4)
Length of Visible Light 13h 18m
Length of Day
12h 31m
Last Quarter, 36% of the Moon is Illuminated
Apr 4
Last Quarter
Apr 10
New
Apr 18
First Quarter
Apr 25
Full
May 2
Last Quarter

Hourly Weather History & Observations

Time (EET) Temp. Dew Point Humidity Pressure Visibility Wind Dir Wind Speed Gust Speed Precip Events Conditions
12:00 AM 71.6 °F 55.4 °F 57% 29.77 in - SSE 2.3 mph - N/A   Clear
1:00 AM 68.0 °F 53.6 °F 60% 29.74 in - Calm Calm - N/A   Clear
2:00 AM 68 °F 51 °F 44% 29.74 in 6 mi Calm Calm - -  
2:00 AM 68.0 °F 51.8 °F 56% 29.74 in - Calm Calm - N/A   Clear
3:00 AM 64.4 °F 41.0 °F 42% 29.71 in - NW 2.3 mph - N/A   Clear
4:00 AM 64.4 °F 41.0 °F 42% 29.71 in - NW 2.3 mph - N/A   Clear
5:00 AM 64.4 °F 46.4 °F 52% 29.74 in - WNW 11.5 mph - N/A   Clear
6:00 AM 66.2 °F 53.6 °F 64% 29.77 in - NNW 3.5 mph - N/A   Clear
7:00 AM 69.8 °F 59.0 °F 68% 29.80 in - WNW 6.9 mph - N/A   Clear
8:00 AM 76 °F 67 °F 68% 29.82 in 6 mi NW 11.5 mph - -  
8:00 AM 75.2 °F 68.0 °F 78% 29.80 in - NW 11.5 mph - N/A   Clear
9:00 AM 78.8 °F 57.2 °F 47% 29.83 in 3.7 mi NNW 26.5 mph - N/A   Unknown
10:00 AM 78.8 °F 48.2 °F 34% 29.86 in 2.5 mi NNW 29.9 mph - N/A   Sand
11:00 AM 82.4 °F 48.2 °F 30% 29.86 in 2.5 mi North 31.1 mph - N/A   Sand
12:00 PM 82.4 °F 48.2 °F 30% 29.83 in 2.5 mi North 31.1 mph - N/A   Sand
1:00 PM 84.2 °F 51.8 °F 33% 29.83 in 2.5 mi North 32.2 mph - N/A   Sand
2:00 PM 84 °F 46 °F 17% 29.82 in 2 mi North 32.2 mph - -   Blowing Sand
3:00 PM 82.4 °F 41.0 °F 23% 29.80 in 3.7 mi North 28.8 mph - N/A   Unknown
4:00 PM 80.6 °F 39.2 °F 23% 29.83 in 3.7 mi North 31.1 mph - N/A   Unknown
5:00 PM 80.6 °F 37.4 °F 21% 29.83 in - NNW 27.6 mph - N/A   Clear
6:00 PM 77.0 °F 42.8 °F 29% 29.86 in - North 23.0 mph - N/A   Clear
7:00 PM 75.2 °F 37.4 °F 25% 29.86 in - NW 20.7 mph - N/A   Clear
8:00 PM 75 °F 34 °F 13% 29.91 in 6 mi NW 25.3 mph - -  
8:00 PM 75.2 °F 33.8 °F 22% 29.89 in - NW 25.3 mph - N/A   Clear
9:00 PM 75.2 °F 37.4 °F 25% 29.92 in - NW 19.6 mph - N/A   Clear
10:00 PM 73.4 °F 37.4 °F 27% 29.95 in - NNW 18.4 mph - N/A   Clear
11:00 PM 69.8 °F 42.8 °F 38% 29.95 in - NW 17.3 mph - N/A   Clear